Theta_e
313 312 312 313 313 312 312 311 312 313 313 313 314 314 312 311 312 313 319 321 322 319 328 342 348 349 353 354 353 349 359 354 350 348 348 344 345 343 341 342 342 345 344 344 344
313 313 313 313 313 313 313 312 311 313 312 313 314 313 312 312 312 319 321 319 318 316 326 346 343 351 354 355 350 347 357 356 346 346 346 345 342 341 343 344 345 345 344 343 343
313 312 312 313 313 313 313 312 312 314 313 313 313 313 312 312 320 326 321 317 315 315 334 341 342 349 353 353 350 353 358 352 345 345 345 345 343 343 345 345 344 345 343 343 342
317 312 312 313 314 313 313 312 313 314 314 314 314 312 312 311 329 331 324 316 315 319 339 340 337 344 351 351 344 348 347 348 347 345 345 345 344 343 345 345 344 344 343 343 343
322 316 312 312 314 314 314 312 314 314 315 315 314 312 312 325 324 323 316 315 315 322 339 335 334 344 349 349 351 350 349 349 345 346 346 344 345 347 347 344 344 344 344 344 344
323 321 315 312 314 314 314 313 315 315 316 316 312 312 312 327 321 320 319 314 326 332 332 332 336 342 343 345 350 349 347 348 349 350 347 348 346 346 346 345 345 344 344 345 344
324 321 318 312 314 314 314 314 315 315 316 313 311 311 324 324 322 325 329 329 332 329 328 330 332 333 341 345 347 347 347 343 347 349 348 350 351 351 348 347 346 346 345 345 344
327 323 317 313 314 314 314 315 316 315 316 312 311 312 326 319 323 327 327 328 328 325 324 324 325 327 332 341 344 346 346 348 348 348 349 349 356 351 349 348 347 346 346 345 345
326 323 317 313 314 314 314 316 316 315 315 312 318 321 327 316 323 326 327 327 327 324 323 324 325 326 334 343 346 349 352 349 346 344 349 351 354 348 350 349 348 346 347 346 345
325 323 317 312 314 314 315 316 316 315 316 311 319 324 324 319 321 324 322 323 323 323 323 324 325 327 333 341 347 348 349 346 347 346 348 349 350 350 349 352 350 348 347 347 346
324 323 318 312 314 314 317 322 325 324 324 327 321 325 321 321 324 323 323 323 323 323 325 324 324 327 331 337 339 344 347 347 347 346 349 350 349 348 350 351 350 350 349 347 346
324 323 320 313 315 314 320 324 321 321 322 324 322 321 323 323 323 323 323 322 322 324 326 326 325 328 331 334 336 340 347 348 347 346 347 351 352 350 350 353 353 351 350 348 346
323 323 322 313 315 316 321 323 320 320 322 323 318 320 322 322 322 322 322 322 323 324 325 327 327 328 330 331 333 338 344 348 348 344 342 345 350 350 347 350 353 350 350 349 347
324 322 323 313 322 322 322 322 320 320 325 322 319 322 321 321 322 322 321 322 323 323 325 326 328 329 330 331 334 337 340 344 344 342 344 342 348 351 349 348 353 352 351 349 348
322 320 321 313 315 321 324 320 320 320 330 321 321 322 321 322 322 321 320 321 322 323 324 326 327 329 330 333 333 335 335 340 343 343 341 343 345 348 347 349 349 349 350 351 349
321 319 317 320 318 320 320 320 320 322 327 323 322 322 322 323 322 322 321 321 322 324 324 325 327 329 330 331 331 331 332 335 337 340 342 342 344 348 347 348 347 347 349 350 350
322 318 315 316 324 320 320 321 324 325 324 323 323 322 322 322 322 321 321 321 322 323 324 325 326 326 327 329 330 330 331 334 337 337 337 338 341 342 343 346 348 347 347 349 351
323 314 316 315 321 320 321 324 327 329 326 324 323 322 321 322 321 321 321 321 323 324 325 324 324 324 325 327 329 330 331 331 334 333 333 335 336 340 342 341 345 346 346 347 350
322 321 323 324 319 321 322 326 327 328 327 323 322 322 321 322 322 321 321 322 323 323 324 326 324 325 325 324 327 328 328 329 328 329 330 331 334 334 341 340 344 343 342 341 348
320 319 324 323 320 320 323 326 328 326 324 323 322 322 321 322 321 321 321 322 323 323 324 325 325 324 324 323 324 326 327 326 327 331 332 330 331 334 341 340 339 339 345 346 349
320 326 325 322 320 321 324 326 326 324 323 322 322 322 322 322 322 322 321 323 323 322 322 323 324 325 324 322 323 323 324 327 327 326 329 329 331 337 342 342 339 339 343 351 349
324 326 325 323 322 322 323 325 323 324 321 322 323 324 323 323 322 322 321 324 321 322 323 322 323 324 324 325 324 324 325 326 328 330 327 328 339 343 342 351 350 354 356 358 354
325 326 326 325 326 325 326 325 324 323 322 322 323 324 324 325 324 323 325 321 322 321 324 326 323 324 325 324 324 324 326 325 325 327 331 329 335 348 354 357 356 356 357 357 361
323 329 327 326 323 325 326 328 325 322 322 323 323 323 324 325 325 325 325 322 321 323 319 321 323 324 324 328 327 325 325 325 327 327 327 328 354 359 352 353 353 354 356 357 356
324 326 327 329 329 327 325 326 326 324 321 322 323 323 323 324 325 325 324 323 321 321 321 322 322 324 323 325 326 326 324 325 325 327 328 332 354 352 345 347 348 348 351 353 353
326 326 326 326 326 328 325 327 325 324 322 321 323 323 324 324 325 324 324 324 323 323 322 322 326 324 324 325 325 325 325 325 325 325 326 327 346 346 340 345 346 347 347 347 347
326 326 325 325 326 326 326 327 325 325 322 321 322 323 323 324 323 323 323 324 324 324 323 324 324 325 323 324 326 325 325 324 324 324 324 325 338 338 343 345 344 344 346 345 344
Wind_Speed
15 15 15 16 16 17 17 15 13 13 11 9 8 8 7 6 5 6 4 9 11 10 8 6 7 9 9 15 7 11 4 3 13 15 18 16 15 21 20 14 10 22 25 25 22
17 17 17 16 16 16 16 15 14 13 11 9 8 8 6 6 5 11 14 14 13 10 9 6 8 9 13 19 6 12 4 9 10 16 17 19 20 18 17 16 24 28 26 25 22
18 19 18 17 16 16 16 14 13 12 10 9 8 7 5 5 4 3 16 14 11 10 12 10 11 9 13 15 14 10 8 18 11 16 23 22 21 19 17 15 22 27 27 25 22
19 18 18 17 17 17 16 14 12 11 11 10 9 6 5 4 1 3 9 12 12 11 8 9 12 14 12 9 29 3 22 33 9 14 15 14 22 9 11 23 24 24 26 24 22
19 19 19 18 17 16 15 12 10 10 9 9 8 5 4 6 3 4 6 12 13 14 10 11 12 13 3 5 17 12 20 8 8 9 25 9 18 22 23 21 23 23 23 22 20
21 19 19 19 17 16 15 10 8 8 7 6 5 3 3 8 2 5 6 12 11 10 9 10 12 11 7 16 9 3 22 6 2 2 3 21 11 19 21 21 24 22 21 20 18
21 20 19 19 18 15 13 8 8 6 5 4 2 3 6 6 1 3 9 11 10 10 9 9 11 12 12 8 21 27 19 2 3 13 6 9 20 12 22 20 22 21 20 18 16
22 20 19 18 17 16 11 8 7 3 3 3 1 2 5 3 5 8 10 10 10 10 9 6 9 13 18 12 4 7 4 8 11 14 10 5 7 12 26 23 19 19 19 19 17
22 18 18 18 17 14 7 7 5 4 1 1 4 3 6 3 9 11 11 11 10 11 9 8 8 15 16 13 10 9 5 9 5 13 16 10 4 17 19 25 22 19 18 19 19
22 19 17 17 16 12 5 6 4 2 2 4 7 7 9 9 12 13 11 10 10 10 11 11 9 10 12 12 12 12 10 7 7 13 15 21 13 18 34 14 25 23 20 18 20
21 19 17 17 14 8 5 6 4 3 10 8 12 7 5 11 11 13 12 10 11 11 13 15 10 13 18 17 17 6 9 12 18 10 18 12 14 23 27 29 25 27 23 19 20
22 20 17 15 11 3 3 5 5 7 11 15 9 5 2 9 9 13 13 12 12 13 16 11 15 17 17 17 16 7 22 14 5 8 3 11 17 23 22 20 17 24 26 24 22
22 20 17 13 8 1 5 9 6 7 7 13 12 14 13 13 13 16 16 16 11 14 15 16 16 17 17 17 14 16 13 13 8 12 12 8 14 14 8 18 24 27 23 25 24
22 20 17 10 4 5 6 4 6 6 6 13 11 10 13 15 15 15 15 16 7 13 16 16 18 14 17 12 9 13 11 8 10 12 9 11 3 6 15 17 21 31 27 23 25
22 20 14 11 7 4 3 5 6 4 5 11 12 10 11 18 16 12 14 17 14 13 12 12 16 9 7 11 13 14 15 13 14 11 10 14 11 12 13 13 10 18 21 22 27
21 19 12 4 4 6 6 6 4 6 4 10 11 10 15 18 8 16 13 12 13 13 13 16 14 9 14 14 15 13 13 9 7 11 13 15 13 11 14 14 14 17 24 23 28
20 18 9 7 3 3 4 5 6 9 7 11 13 14 16 13 12 9 13 14 12 10 12 13 11 4 12 15 16 11 12 6 8 10 12 17 15 10 12 11 8 10 18 25 30
19 12 6 5 6 5 4 7 7 9 11 4 9 16 15 16 13 11 14 14 18 13 10 12 14 15 15 17 13 13 17 9 12 10 13 16 15 14 16 15 23 24 22 3 20
17 6 5 5 4 6 9 9 13 11 4 4 7 12 15 14 7 13 13 15 13 12 9 8 15 20 15 14 19 14 16 18 20 19 13 13 18 15 15 13 21 20 25 18 36
18 7 13 7 6 6 8 15 18 8 8 5 13 11 15 13 8 12 13 11 4 3 9 12 6 11 11 9 17 16 12 13 12 16 16 11 12 11 16 16 12 9 28 45 37
10 8 13 6 6 10 10 15 14 4 7 10 11 12 15 11 14 12 9 7 4 1 7 15 10 8 10 10 13 12 13 10 13 15 12 10 7 10 12 6 13 11 12 20 16
9 5 7 8 9 11 12 19 10 6 7 13 9 16 12 12 15 14 17 5 9 7 12 11 9 7 13 17 16 18 17 16 9 13 11 13 3 15 13 17 20 23 20 19 11
8 16 8 8 8 11 17 18 5 11 10 13 11 9 3 10 7 16 12 6 7 3 4 9 8 10 10 6 5 8 13 14 18 16 13 11 3 14 19 20 25 19 17 15 19
8 5 11 14 17 18 16 16 12 15 9 16 11 10 8 8 10 9 11 5 5 3 3 3 10 14 10 11 7 18 15 12 12 10 13 14 12 17 14 17 17 19 16 14 15
7 7 13 7 9 11 16 18 16 15 15 7 10 8 12 12 11 10 6 8 6 5 2 4 12 14 17 14 4 13 15 11 11 13 11 3 14 11 11 6 10 13 18 16 14
8 12 16 20 19 17 14 16 20 16 14 18 15 15 17 16 14 12 17 12 8 11 6 9 10 13 17 18 6 12 8 3 8 11 13 12 17 13 21 15 9 8 8 12 15
11 15 13 12 14 14 14 17 16 18 13 17 15 14 14 4 3 5 9 9 5 11 6 11 11 11 15 12 15 14 13 11 10 11 11 10 14 7 12 13 10 8 7 8 9
Wind_Direction
354 353 350 347 343 339 335 332 331 329 323 319 320 314 309 303 279 255 237 235 233 256 207 197 242 238 248 260 239 27 3 325 154 135 115 122 94 88 109 127 101 104 136 137 140
353 353 351 348 344 340 336 333 331 329 322 320 321 311 304 299 263 248 239 238 239 241 197 213 224 228 240 269 62 75 321 294 64 119 127 122 117 135 132 118 107 108 122 138 142
354 352 349 347 344 341 337 333 333 331 324 320 322 307 296 291 293 175 225 240 222 215 196 253 260 245 243 270 83 132 246 277 128 112 136 117 140 151 144 131 130 133 139 145 147
349 347 348 348 346 341 336 331 333 333 326 317 312 305 283 281 347 177 242 214 199 189 224 251 251 257 264 82 97 69 243 256 164 143 138 138 147 132 122 122 131 141 144 147 153
346 343 344 343 342 341 337 329 328 329 330 325 301 302 278 264 281 319 197 188 185 187 229 242 239 244 54 265 134 185 260 266 127 147 103 179 129 113 107 116 131 141 147 152 154
345 341 342 339 342 339 335 328 329 328 331 327 313 282 243 256 358 309 179 176 177 195 227 236 251 268 260 248 139 297 301 69 297 36 231 120 134 116 115 132 139 148 152 158 150
344 341 340 338 338 337 332 323 330 335 338 338 319 230 257 289 156 163 177 175 187 206 230 241 259 288 256 286 138 146 255 189 82 292 170 49 120 120 130 137 146 154 158 154 157
343 341 338 337 338 336 332 328 328 336 341 351 152 194 280 187 187 189 190 194 202 211 233 258 257 275 283 301 175 185 271 205 151 249 354 198 308 149 144 142 155 158 162 157 161
343 342 337 336 338 338 325 322 314 317 296 218 112 217 247 197 188 184 190 200 207 218 230 247 252 250 265 255 225 164 182 242 287 248 201 184 46 307 286 150 157 160 165 167 166
342 342 340 335 336 334 323 316 304 264 302 206 259 251 211 213 181 182 187 189 200 211 225 231 231 236 239 235 226 187 169 158 221 263 114 89 83 314 279 263 160 163 165 175 173
343 342 341 335 336 334 331 297 293 229 211 267 144 268 149 160 159 187 189 200 199 217 223 204 215 216 223 237 243 154 226 199 199 251 103 113 107 216 247 266 162 161 165 180 179
342 340 341 335 333 310 315 290 1 325 296 220 236 243 169 167 187 194 188 207 207 213 225 187 228 232 227 240 247 248 163 210 277 236 140 152 182 219 241 201 217 167 170 174 180
342 338 338 334 335 285 301 304 309 319 267 184 213 213 200 200 201 192 191 209 206 224 218 232 219 227 245 239 251 232 225 161 211 211 269 214 187 214 247 208 153 220 177 173 176
338 336 335 331 339 324 268 270 318 311 271 159 190 225 181 202 215 186 197 210 236 234 238 229 253 208 235 233 222 258 242 140 272 191 188 250 267 213 174 249 173 205 175 174 170
335 332 333 322 295 288 324 313 298 258 270 143 160 153 186 216 132 168 194 215 245 222 238 222 244 206 220 216 242 245 267 192 179 290 239 201 210 201 228 220 210 177 188 178 171
334 328 327 343 286 237 309 301 290 238 246 153 149 194 182 221 177 155 195 228 235 265 244 251 229 189 227 230 236 252 262 287 284 221 255 213 233 191 212 215 235 203 191 185 175
334 323 307 245 86 303 274 267 229 250 114 160 178 182 195 194 204 170 199 206 220 220 213 233 248 209 241 229 220 225 244 212 236 238 245 254 225 243 214 186 164 12 257 187 174
332 321 288 242 250 265 252 240 257 249 193 108 182 187 200 198 194 184 200 214 231 226 221 207 213 205 223 244 205 213 228 221 214 228 233 229 259 220 191 178 147 151 251 203 191
335 326 312 307 217 217 242 231 228 287 281 155 215 188 207 182 202 199 223 223 196 240 290 264 222 192 190 220 247 194 228 242 264 276 261 237 210 238 165 176 170 167 124 105 237
336 299 249 199 199 207 241 258 296 314 345 239 222 218 209 179 185 199 198 233 163 12 319 317 114 151 172 213 244 259 207 226 242 258 271 268 261 208 183 188 191 188 162 175 210
332 277 148 178 194 229 242 248 262 137 274 255 245 212 239 183 201 222 242 128 111 149 265 297 287 163 208 199 234 223 246 257 250 227 249 255 271 245 81 297 174 178 91 36 18
299 276 168 200 231 233 244 250 271 271 225 271 292 282 208 236 199 222 215 104 52 335 301 243 291 244 196 218 223 240 218 234 234 234 237 257 109 59 99 61 69 69 51 39 27
292 289 253 232 248 238 244 244 320 258 205 234 231 269 234 220 201 231 108 85 107 162 332 339 238 245 155 152 276 267 263 213 234 264 240 237 282 90 89 57 39 59 55 39 17
294 289 211 213 248 279 294 289 227 235 285 239 238 221 238 236 192 221 119 108 99 306 4 313 291 300 297 325 326 193 238 241 257 234 238 241 118 55 48 40 33 23 26 42 29
255 269 330 299 250 250 253 270 276 220 226 252 257 218 219 228 201 220 213 138 203 169 265 254 270 287 296 298 282 299 197 218 234 271 282 211 94 94 51 41 50 33 11 26 23
288 327 321 303 291 285 280 270 264 252 186 240 238 226 238 229 218 204 213 158 202 173 217 246 267 288 290 295 252 259 278 245 201 244 273 296 97 111 154 144 59 38 25 15 15
287 291 278 275 283 280 260 271 263 268 231 210 238 247 235 283 43 3 347 175 183 188 182 252 246 245 264 273 279 255 241 245 231 245 272 280 87 60 77 57 45 13 19 14 14